Tracking 30970 objects as of 3-Jul-2025
HD Live streaming from Space Station
objects crossing your sky now

SL-8 R/B

Track SL-8 R/B now!
10-day predictions


NORAD ID: 5555
Int'l Code: 1971-086J
Perigee: 1,509.5 km
Apogee: 1,629.1 km
Inclination: 74.0 °
Period: 117.4 minutes
Semi major axis: 7940 km
RCS: 6.6314 m2 (large)
Launch date: October 13, 1971
Source: Commonwealth of Independent States (former USSR) (CIS)
Launch site: PLESETSK MISSILE AND SPACE COMPLEX (PKMTR)

Note: This is a ROCKET BODY
Your satellite tracking list
Your tracking list is empty




NASA's NSSDC Master Catalog

Two Line Element Set (TLE):
1 05555U 71086J   25183.94795041 -.00000019  00000-0 -38440-4 0  9995
2 05555  74.0186 101.8888 0075335 113.4732 318.9143 12.27015056406071
Source of the keplerian elements: AFSPC